User: anonymous   Login
Location: Bats
(43.6587°N, 0.4584°W)
Time: 04:34:40
(UTC+00:00)
Language:

ERS-1 - Orbit

View from above orbital plane
View from above orbital plane
View from above satellite
View from above satellite

Ground track
Ground track

The orbit is defined by the following mean orbital elements,

1 21574U          26067.02906674 +.00000000 +00000-0 +15895-3 0 00008
2 21574  98.7884  85.2220 0031538 205.4587 154.5048 14.39448063    04
Epoch (UTC): 08 March 2026 00:41:51
Eccentricity: 0.0031538
inclination: 98.7884°
perigee height: 738 km
apogee height: 783 km
right ascension of ascending node: 85.2220°
argument of perigee: 205.4587°
revolutions per day: 14.39448063
mean anomaly at epoch: 154.5048°

The dashed part of the orbit path shows where the satellite is in the earth's shadow,  

DLR